Skip Page Navigation
NASA JPL Caltech
NASA Logo - Jet Propulsion Laboratory + View the NASA Portal
+ Near-Earth Object (NEO) Program
Search JPL
JPL Home Earth Solar System Stars & Galaxies Technology
JPL Solar System Dynamics
BODIES ORBITS EPHEMERIDES TOOLS PHYSICAL DATA DISCOVERY FAQ SITE MAP
JPL Small-Body Database Browser
Search: [ help ]  
(2010 LN14)
Classification: Apollo [NEO, PHA]          SPK-ID: 3528339
Ephemeris | Orbit Diagram | Orbital Elements | Physical Parameters | Close-Approach Data ]

[ hide orbit diagram ]
Orbit Diagram
Note: Make sure you have Java enabled on your browser to see the applet. This applet is provided as a 3D orbit visualization tool. The applet was implemented using 2-body methods, and hence should not be used for determining accurate long-term trajectories (over several years or decades) or planetary encounter circumstances. For accurate long-term ephemerides, please instead use our Horizons system.
Orbit Viewer

Additional Notes: the orbits shown in the applet are color coded. The planets are white lines, and the asteroid/comet is a blue line. The bright white line indicates the portion of the orbit that is above the ecliptic plane, and the darker portion is below the ecliptic plane. Likewise for the asteroid/comet orbit, the light blue indicates the portion above the ecliptic plane, and the dark blue the portion below the ecliptic plane.

Orbit Viewer applet originally written and kindly provided by Osamu Ajiki (AstroArts), and further modified by Ron Baalke (JPL).


Orbital Elements at Epoch 2456400.5 (2013-Apr-18.0) TDB
Reference: JPL 29 (heliocentric ecliptic J2000)
 Element Value Uncertainty (1-sigma)   Units 
e .4747930370241045 3.5439e-07  
a 1.155558614290962 1.427e-07 AU
q .6069074303523905 3.4179e-07 AU
i 1.48897125468581 5.8243e-06 deg
node 343.1733976763438 0.00056428 deg
peri 33.04351337506709 0.00056467 deg
M 40.83068404146539 0.00010278 deg
tp 2456349.039908863396
(2013-Feb-25.53990886)
0.00012025 JED
period 453.7184042854628
1.24
8.4047e-05
2.301e-07
d
yr
n .7934436791625082 1.4698e-07 deg/d
Q 1.704209798229534 2.1046e-07 AU
  Orbit Determination Parameters
   # obs. used (total)      101  
   data-arc span      648 days (1.77 yr)  
   first obs. used      2010-06-06  
   last obs. used      2012-03-15  
   planetary ephem.      DE405  
   SB-pert. ephem.      SB405-CPV-2  
   condition code      1  
   fit RMS      .46246  
   data source      ORB  
   producer      Otto Matic  
   solution date      2012-Mar-16 01:50:11  

Additional Information
 Earth MOID = .0184183 AU 
 T_jup = 5.332 
[ show covariance matrix ]

Ephemeris | Orbit Diagram | Orbital Elements | Physical Parameters | Close-Approach Data ]

Physical Parameter Table
Parameter Symbol Value Units Sigma Reference Notes
absolute magnitude H 21.128 mag .4735 29 autocmod 2.5b

[ show close-approach data ]
Ephemeris | Orbit Diagram | Orbital Elements | Physical Parameters | Close-Approach Data ]
ABOUT SSD CREDITS/AWARDS PRIVACY/COPYRIGHT GLOSSARY LINKS
FirstGov 2013-May-21 19:02 UT
(server date/time)  
NASA Home Page
Site Manager:   Donald K. Yeomans
Webmaster  Alan B. Chamberlin